| time (UTC) | temp F | wind direction | speed knots | gust knots | rain 1hr in | rain 24hr in | rain mn in | humidity % | barometer mb |
| 20260504070409 | 37 | 342 | 0.0 | 0.0 | 0.00 | 0.00 | 0.00 | 94 | 1016.6 |
| 20260504050253 | 37 | 343 | 0.0 | 0.0 | 0.00 | 0.00 | 0.00 | 91 | 1016.9 |
| 20260504045751 | 38 | 343 | 0.0 | 0.0 | 0.00 | 0.00 | 0.00 | 88 | 1016.8 |
| 20260504045245 | 39 | 343 | 0.0 | 0.0 | 0.00 | 0.00 | 0.00 | 88 | 1017.1 |
| 20260504044743 | 39 | 343 | 0.0 | 0.0 | 0.00 | 0.00 | 0.00 | 88 | 1016.9 |
| 20260504044240 | 40 | 343 | 0.0 | 0.0 | 0.00 | 0.00 | 0.00 | 87 | 1016.8 |
| 20260504043737 | 40 | 343 | 0.0 | 0.9 | 0.00 | 0.00 | 0.00 | 88 | 1016.9 |
| 20260504043234 | 40 | 343 | 0.0 | 0.9 | 0.00 | 0.00 | 0.00 | 87 | 1016.9 |
| 20260504042732 | 40 | 343 | 0.0 | 0.0 | 0.00 | 0.00 | 0.00 | 84 | 1016.9 |
| 20260504042227 | 40 | 343 | 0.0 | 0.9 | 0.00 | 0.00 | 0.00 | 82 | 1016.9 |
| 20260504041724 | 40 | 343 | 0.0 | 0.0 | 0.00 | 0.00 | 0.00 | 84 | 1016.8 |
| 20260504041220 | 41 | 343 | 0.0 | 0.0 | 0.00 | 0.00 | 0.00 | 82 | 1016.8 |
| 20260504040711 | 40 | 343 | 0.9 | 0.9 | 0.00 | 0.00 | 0.00 | 83 | 1016.5 |
| 20260504040208 | 39 | 343 | 0.9 | 0.9 | 0.00 | 0.00 | 0.00 | 85 | 1016.7 |
| 20260504035704 | 40 | 343 | 0.0 | 0.0 | 0.00 | 0.00 | 0.00 | 83 | 1016.8 |
| 20260504035202 | 41 | 343 | 0.0 | 0.0 | 0.00 | 0.00 | 0.00 | 83 | 1016.7 |
| 20260504034659 | 41 | 343 | 0.0 | 0.0 | 0.00 | 0.00 | 0.00 | 82 | 1016.6 |
| 20260504034156 | 41 | 343 | 0.0 | 0.9 | 0.00 | 0.00 | 0.00 | 83 | 1016.7 |
| 20260504033654 | 41 | 343 | 0.9 | 0.9 | 0.00 | 0.00 | 0.00 | 82 | 1016.8 |
| 20260504033151 | 41 | 343 | 0.0 | 0.0 | 0.00 | 0.00 | 0.00 | 81 | 1016.5 |
| 20260504032647 | 41 | 343 | 0.0 | 0.0 | 0.00 | 0.00 | 0.00 | 82 | 1016.7 |
| 20260504032145 | 41 | 343 | 0.0 | 0.0 | 0.00 | 0.00 | 0.00 | 82 | 1016.7 |
| 20260504031642 | 41 | 343 | 0.0 | 0.0 | 0.00 | 0.00 | 0.00 | 81 | 1016.4 |
| 20260504031138 | 42 | 343 | 0.0 | 0.0 | 0.00 | 0.00 | 0.00 | 78 | 1016.4 |
| 20260504030635 | 43 | 343 | 0.0 | 0.0 | 0.00 | 0.00 | 0.00 | 76 | 1016.5 |
| 20260504030132 | 43 | 343 | 0.9 | 0.9 | 0.00 | 0.00 | 0.00 | 76 | 1016.4 |
| 20260504025628 | 43 | 343 | 0.0 | 0.0 | 0.00 | 0.00 | 0.00 | 76 | 1016.6 |
| 20260504025125 | 43 | 343 | 0.0 | 0.0 | 0.00 | 0.00 | 0.00 | 75 | 1016.6 |
| 20260504024623 | 44 | 343 | 0.0 | 0.9 | 0.00 | 0.00 | 0.00 | 74 | 1016.4 |
| 20260504024119 | 44 | 343 | 0.0 | 0.9 | 0.00 | 0.00 | 0.00 | 74 | 1016.6 |
| 20260504023616 | 44 | 343 | 0.9 | 0.9 | 0.00 | 0.00 | 0.00 | 73 | 1016.2 |
| 20260504023111 | 45 | 343 | 0.0 | 0.0 | 0.00 | 0.00 | 0.00 | 70 | 1016.3 |
| 20260504022608 | 44 | 343 | 0.0 | 0.9 | 0.00 | 0.00 | 0.00 | 69 | 1016.1 |
| 20260504022104 | 44 | 343 | 0.0 | 0.9 | 0.00 | 0.00 | 0.00 | 69 | 1016.2 |
| 20260504021603 | 45 | 343 | 0.0 | 0.0 | 0.00 | 0.00 | 0.00 | 68 | 1016.5 |
| 20260504021059 | 46 | 343 | 0.0 | 0.9 | 0.00 | 0.00 | 0.00 | 67 | 1016.3 |
| 20260504020556 | 46 | 343 | 0.0 | 0.0 | 0.00 | 0.00 | 0.00 | 65 | 1016.2 |
| 20260504020051 | 47 | 343 | 0.0 | 0.0 | 0.00 | 0.00 | 0.00 | 63 | 1016.3 |
| 20260504015548 | 46 | 343 | 0.0 | 0.0 | 0.00 | 0.00 | 0.00 | 65 | 1016.2 |
| 20260504015044 | 46 | 343 | 0.0 | 0.0 | 0.00 | 0.00 | 0.00 | 63 | 1016.3 |
| 20260504014541 | 47 | 343 | 0.0 | 0.0 | 0.00 | 0.00 | 0.00 | 62 | 1016.3 |
| 20260504014038 | 48 | 343 | 0.0 | 0.0 | 0.00 | 0.00 | 0.00 | 62 | 1016.3 |
| 20260504013536 | 48 | 343 | 0.0 | 0.0 | 0.00 | 0.00 | 0.00 | 60 | 1016.3 |
| 20260504013032 | 48 | 343 | 0.9 | 0.9 | 0.00 | 0.00 | 0.00 | 60 | 1016.0 |
| 20260504012529 | 48 | 343 | 0.0 | 0.0 | 0.00 | 0.00 | 0.00 | 59 | 1016.1 |
| 20260504012022 | 48 | 343 | 0.0 | 0.0 | 0.00 | 0.00 | 0.00 | 59 | 1016.2 |
| 20260504011518 | 49 | 343 | 0.9 | 0.9 | 0.00 | 0.00 | 0.00 | 59 | 1016.1 |
| 20260504011014 | 49 | 343 | 0.0 | 0.0 | 0.00 | 0.00 | 0.00 | 58 | 1015.9 |
| 20260504010510 | 50 | 343 | 0.0 | 0.0 | 0.00 | 0.00 | 0.00 | 56 | 1015.9 |
| 20260504010006 | 49 | 343 | 0.0 | 0.0 | 0.00 | 0.00 | 0.00 | 57 | 1015.9 |
| 20260504005503 | 49 | 343 | 0.0 | 0.0 | 0.00 | 0.00 | 0.00 | 58 | 1015.8 |
| 20260504005001 | 50 | 343 | 0.0 | 0.0 | 0.00 | 0.00 | 0.00 | 56 | 1015.9 |
| 20260504004458 | 50 | 343 | 0.0 | 0.0 | 0.00 | 0.00 | 0.00 | 56 | 1015.9 |
| 20260504003955 | 50 | 343 | 0.0 | 0.0 | 0.00 | 0.00 | 0.00 | 56 | 1015.8 |
| 20260504003451 | 50 | 343 | 0.0 | 0.0 | 0.00 | 0.00 | 0.00 | 56 | 1015.8 |
| 20260504002948 | 51 | 343 | 0.0 | 0.0 | 0.00 | 0.00 | 0.00 | 55 | 1015.8 |
| 20260504002445 | 51 | 343 | 0.0 | 0.0 | 0.00 | 0.00 | 0.00 | 56 | 1015.7 |
| 20260504001943 | 51 | 343 | 0.0 | 0.0 | 0.00 | 0.00 | 0.00 | 55 | 1015.7 |
| 20260504001440 | 52 | 343 | 0.0 | 0.0 | 0.00 | 0.00 | 0.00 | 54 | 1015.3 |
| 20260504000936 | 53 | 343 | 0.0 | 0.0 | 0.00 | 0.00 | 0.00 | 52 | 1015.5 |
| 20260504000433 | 54 | 343 | 0.0 | 0.0 | 0.00 | 0.00 | 0.00 | 52 | 1015.4 |
| 20260503235931 | 55 | 285 | 0.0 | 0.0 | 0.00 | 0.00 | 0.00 | 48 | 1015.5 |
| 20260503235428 | 55 | 285 | 0.9 | 0.9 | 0.00 | 0.00 | 0.00 | 48 | 1015.4 |
| 20260503234926 | 56 | 279 | 0.9 | 1.7 | 0.00 | 0.00 | 0.00 | 47 | 1015.5 |
| 20260503234423 | 57 | 277 | 1.7 | 1.7 | 0.00 | 0.00 | 0.00 | 45 | 1015.4 |
| 20260503233921 | 57 | 301 | 1.7 | 1.7 | 0.00 | 0.00 | 0.00 | 44 | 1015.2 |
| 20260503233417 | 58 | 344 | 0.9 | 0.9 | 0.00 | 0.00 | 0.00 | 42 | 1015.2 |
| 20260503232914 | 58 | 229 | 3.5 | 5.2 | 0.00 | 0.00 | 0.00 | 43 | 1015.2 |
| 20260503232411 | 58 | 296 | 4.3 | 5.2 | 0.00 | 0.00 | 0.00 | 41 | 1014.8 |
| 20260503231909 | 59 | 293 | 1.7 | 2.6 | 0.00 | 0.00 | 0.00 | 41 | 1015.1 |
| 20260503231405 | 59 | 312 | 5.2 | 7.0 | 0.00 | 0.00 | 0.00 | 40 | 1015.1 |
| 20260503230902 | 59 | 293 | 1.7 | 2.6 | 0.00 | 0.00 | 0.00 | 44 | 1015.0 |
| 20260503230358 | 59 | 266 | 3.5 | 4.3 | 0.00 | 0.00 | 0.00 | 42 | 1014.9 |
| 20260503225856 | 59 | 305 | 6.1 | 7.0 | 0.00 | 0.00 | 0.00 | 40 | 1015.0 |
| 20260503225352 | 59 | 321 | 3.5 | 4.3 | 0.00 | 0.00 | 0.00 | 41 | 1014.9 |
| 20260503224848 | 60 | 258 | 2.6 | 4.3 | 0.00 | 0.00 | 0.00 | 42 | 1015.0 |
| 20260503224346 | 60 | 249 | 1.7 | 1.7 | 0.00 | 0.00 | 0.00 | 41 | 1015.1 |
| 20260503223843 | 60 | 330 | 1.7 | 1.7 | 0.00 | 0.00 | 0.00 | 41 | 1015.2 |
| 20260503223341 | 60 | 241 | 1.7 | 2.6 | 0.00 | 0.00 | 0.00 | 41 | 1015.1 |
| 20260503222836 | 59 | 251 | 4.3 | 6.1 | 0.00 | 0.00 | 0.00 | 40 | 1015.1 |
| 20260503222335 | 60 | 301 | 7.8 | 8.7 | 0.00 | 0.00 | 0.00 | 39 | 1015.1 |
| 20260503221832 | 60 | 349 | 2.6 | 4.3 | 0.00 | 0.00 | 0.00 | 40 | 1015.1 |
| 20260503221331 | 60 | 343 | 1.7 | 1.7 | 0.00 | 0.00 | 0.00 | 41 | 1014.9 |
| 20260503220827 | 59 | 241 | 6.1 | 7.8 | 0.00 | 0.00 | 0.00 | 41 | 1015.0 |
| 20260503220324 | 59 | 248 | 4.3 | 6.1 | 0.00 | 0.00 | 0.00 | 41 | 1015.3 |
| 20260503215820 | 60 | 6 | 2.6 | 4.3 | 0.00 | 0.00 | 0.00 | 39 | 1015.3 |
| 20260503215318 | 60 | 317 | 3.5 | 5.2 | 0.00 | 0.00 | 0.00 | 39 | 1015.1 |
| 20260503214816 | 59 | 359 | 2.6 | 4.3 | 0.00 | 0.00 | 0.00 | 40 | 1015.2 |
| 20260503214313 | 60 | 245 | 1.7 | 2.6 | 0.00 | 0.00 | 0.00 | 39 | 1015.2 |
| 20260503213810 | 61 | 310 | 4.3 | 6.1 | 0.00 | 0.00 | 0.00 | 39 | 1015.0 |
| 20260503213308 | 60 | 265 | 5.2 | 6.1 | 0.00 | 0.00 | 0.00 | 40 | 1014.9 |
| 20260503212804 | 61 | 291 | 5.2 | 7.8 | 0.00 | 0.00 | 0.00 | 38 | 1015.1 |
| 20260503212304 | 61 | 281 | 4.3 | 6.1 | 0.00 | 0.00 | 0.00 | 39 | 1015.0 |
| 20260503211759 | 60 | 279 | 6.1 | 8.7 | 0.00 | 0.00 | 0.00 | 39 | 1015.1 |
| 20260503211255 | 60 | 262 | 4.3 | 5.2 | 0.00 | 0.00 | 0.00 | 39 | 1015.0 |
| 20260503210750 | 60 | 290 | 3.5 | 4.3 | 0.00 | 0.00 | 0.00 | 38 | 1014.9 |
| 20260503210243 | 60 | 258 | 8.7 | 9.6 | 0.00 | 0.00 | 0.00 | 39 | 1014.9 |
| 20260503205743 | 60 | 213 | 4.3 | 5.2 | 0.00 | 0.00 | 0.00 | 40 | 1015.0 |
| 20260503205240 | 60 | 13 | 2.6 | 2.6 | 0.00 | 0.00 | 0.00 | 41 | 1015.0 |
| 20260503204736 | 61 | 299 | 2.6 | 2.6 | 0.00 | 0.00 | 0.00 | 38 | 1015.0 |
| 20260503204234 | 60 | 227 | 3.5 | 5.2 | 0.00 | 0.00 | 0.00 | 41 | 1015.1 |
| 20260503203731 | 60 | 289 | 3.5 | 5.2 | 0.00 | 0.00 | 0.00 | 39 | 1014.8 |
| 20260503203228 | 60 | 277 | 5.2 | 7.0 | 0.00 | 0.00 | 0.00 | 40 | 1015.2 |
| 20260503202725 | 60 | 242 | 4.3 | 5.2 | 0.00 | 0.00 | 0.00 | 38 | 1014.9 |
| 20260503202223 | 58 | 290 | 2.6 | 2.6 | 0.00 | 0.00 | 0.00 | 42 | 1015.2 |
| 20260503201721 | 58 | 325 | 2.6 | 4.3 | 0.00 | 0.00 | 0.00 | 40 | 1015.2 |
| 20260503201218 | 58 | 275 | 5.2 | 7.0 | 0.00 | 0.00 | 0.00 | 39 | 1015.4 |
| 20260503200714 | 59 | 308 | 3.5 | 4.3 | 0.00 | 0.00 | 0.00 | 44 | 1015.4 |
| 20260503200211 | 60 | 273 | 2.6 | 4.3 | 0.00 | 0.00 | 0.00 | 41 | 1015.4 |
| 20260503195708 | 59 | 286 | 7.8 | 7.8 | 0.00 | 0.00 | 0.00 | 39 | 1015.6 |
| 20260503195205 | 60 | 124 | 2.6 | 4.3 | 0.00 | 0.00 | 0.00 | 40 | 1015.5 |
| 20260503194702 | 60 | 235 | 2.6 | 4.3 | 0.00 | 0.00 | 0.00 | 40 | 1015.8 |
| 20260503194157 | 58 | 324 | 6.1 | 7.8 | 0.00 | 0.00 | 0.00 | 44 | 1015.6 |
| 20260503193654 | 57 | 296 | 3.5 | 5.2 | 0.00 | 0.00 | 0.00 | 42 | 1016.0 |
| 20260503193150 | 58 | 243 | 5.2 | 7.0 | 0.00 | 0.00 | 0.00 | 41 | 1015.9 |
| 20260503192645 | 57 | 315 | 1.7 | 1.7 | 0.00 | 0.00 | 0.00 | 43 | 1015.6 |
| 20260503192141 | 56 | 353 | 4.3 | 5.2 | 0.00 | 0.00 | 0.00 | 43 | 1016.1 |
| 20260503191638 | 56 | 244 | 7.0 | 8.7 | 0.00 | 0.00 | 0.00 | 43 | 1016.2 |
| 20260503191135 | 57 | 16 | 4.3 | 5.2 | 0.00 | 0.00 | 0.00 | 43 | 1016.2 |
| 20260503190632 | 58 | 292 | 6.1 | 7.8 | 0.00 | 0.00 | 0.00 | 41 | 1015.9 |
| 20260503190129 | 58 | 287 | 2.6 | 4.3 | 0.00 | 0.00 | 0.00 | 45 | 1016.2 |
| 20260503185626 | 57 | 274 | 5.2 | 7.8 | 0.00 | 0.00 | 0.00 | 44 | 1016.1 |
| 20260503185121 | 56 | 270 | 5.2 | 6.1 | 0.00 | 0.00 | 0.00 | 45 | 1016.1 |
| 20260503184616 | 56 | 344 | 11.3 | 13.0 | 0.00 | 0.00 | 0.00 | 41 | 1016.5 |
| 20260503184113 | 57 | 239 | 5.2 | 6.1 | 0.00 | 0.00 | 0.00 | 46 | 1016.2 |
| 20260503183609 | 58 | 356 | 7.8 | 9.6 | 0.00 | 0.00 | 0.00 | 43 | 1016.3 |
| 20260503183107 | 56 | 289 | 6.1 | 9.6 | 0.00 | 0.00 | 0.00 | 45 | 1016.4 |
| 20260503182605 | 57 | 317 | 5.2 | 7.8 | 0.00 | 0.00 | 0.00 | 43 | 1016.6 |
| 20260503182103 | 57 | 302 | 5.2 | 7.8 | 0.00 | 0.00 | 0.00 | 43 | 1016.5 |
| 20260503181559 | 57 | 280 | 4.3 | 6.1 | 0.00 | 0.00 | 0.00 | 45 | 1016.5 |
| 20260503181056 | 57 | 312 | 6.1 | 7.0 | 0.00 | 0.00 | 0.00 | 46 | 1016.6 |
| 20260503180553 | 57 | 49 | 6.1 | 7.0 | 0.00 | 0.00 | 0.00 | 44 | 1016.7 |
| 20260503180050 | 56 | 29 | 2.6 | 4.3 | 0.00 | 0.00 | 0.00 | 46 | 1016.4 |
| 20260503175548 | 55 | 23 | 2.6 | 2.6 | 0.00 | 0.00 | 0.00 | 47 | 1016.6 |
| 20260503175045 | 55 | 307 | 5.2 | 6.1 | 0.00 | 0.00 | 0.00 | 48 | 1016.7 |
| 20260503174542 | 56 | 312 | 7.0 | 8.7 | 0.00 | 0.00 | 0.00 | 44 | 1016.7 |
| 20260503174038 | 56 | 354 | 6.1 | 7.0 | 0.00 | 0.00 | 0.00 | 46 | 1016.6 |
| 20260503173533 | 55 | 318 | 2.6 | 2.6 | 0.00 | 0.00 | 0.00 | 48 | 1016.7 |
| 20260503173030 | 55 | 6 | 4.3 | 5.2 | 0.00 | 0.00 | 0.00 | 47 | 1016.8 |
| 20260503172528 | 55 | 270 | 7.8 | 8.7 | 0.00 | 0.00 | 0.00 | 44 | 1016.9 |
| 20260503172024 | 54 | 296 | 8.7 | 11.3 | 0.00 | 0.00 | 0.00 | 47 | 1016.7 |
| 20260503171521 | 55 | 269 | 5.2 | 7.0 | 0.00 | 0.00 | 0.00 | 48 | 1016.9 |
| 20260503171018 | 54 | 238 | 5.2 | 7.0 | 0.00 | 0.00 | 0.00 | 49 | 1016.9 |
| 20260503170514 | 55 | 316 | 7.8 | 11.3 | 0.00 | 0.00 | 0.00 | 43 | 1017.0 |
| 20260503150901 | 50 | 0 | 4.3 | 7.8 | 0.00 | 0.00 | 0.00 | 46 | 1017.6 |
| 20260503150357 | 50 | 315 | 3.5 | 7.8 | 0.00 | 0.00 | 0.00 | 49 | 1017.6 |
| 20260503131251 | 46 | 2 | 2.6 | 4.3 | 0.00 | 0.00 | 0.00 | 64 | 1017.6 |
| 20260503130748 | 46 | 18 | 1.7 | 2.6 | 0.00 | 0.00 | 0.00 | 62 | 1017.6 |
| 20260503130246 | 46 | 15 | 7.8 | 13.0 | 0.00 | 0.00 | 0.00 | 63 | 1017.5 |
| 20260503120212 | 42 | 318 | 4.3 | 5.2 | 0.00 | 0.00 | 0.00 | 72 | 1017.3 |
| 20260503110639 | 39 | 302 | 5.2 | 6.1 | 0.00 | 0.00 | 0.00 | 77 | 1016.8 |
| 20260503110137 | 39 | 274 | 0.9 | 1.7 | 0.00 | 0.00 | 0.00 | 78 | 1016.7 |
| 20260503081440 | 39 | 303 | 1.7 | 1.7 | 0.00 | 0.00 | 0.00 | 79 | 1015.2 |
| 20260503080938 | 39 | 224 | 3.5 | 5.2 | 0.00 | 0.00 | 0.00 | 79 | 1015.1 |
| 20260503080434 | 39 | 235 | 2.6 | 2.6 | 0.00 | 0.00 | 0.00 | 80 | 1015.0 |
| 20260503072904 | 40 | 261 | 1.7 | 1.7 | 0.00 | 0.00 | 0.00 | 79 | 1014.5 |
| 20260503072401 | 40 | 259 | 3.5 | 4.3 | 0.00 | 0.00 | 0.00 | 79 | 1014.6 |
| 20260503071857 | 40 | 310 | 1.7 | 1.7 | 0.00 | 0.00 | 0.00 | 78 | 1014.7 |
| 20260503071355 | 40 | 230 | 2.6 | 2.6 | 0.00 | 0.00 | 0.00 | 78 | 1014.6 |